Dewpoint
70 69 69 70 71 69 69 69 58 60 58 52 48 49 50 53 53 53 53 54 52 56 56 53 52 53 55 52 52 53 55 55 54 52 54 61 65 66 69 68 69 71 70 72 72 73 73 74 75 74 74 74 75 74 74 75 75 75 75 74 74 74 75 75 75 75 75 75 75 76 75 75 75 75 76 76 76 75 75 75 74 75 75 75 75 75 75 74 75 75 75 75 75 75 75 75 75
64 68 70 70 70 69 65 68 59 56 54 46 48 51 51 52 54 51 51 54 53 49 50 51 51 53 51 50 53 56 56 57 58 58 59 62 65 68 66 68 69 68 70 72 72 72 73 74 75 75 74 74 74 74 75 74 75 75 75 75 74 74 75 75 75 75 75 75 75 75 75 75 75 75 75 75 75 75 75 75 75 74 74 75 74 74 74 75 75 75 75 75 75 75 75 75 75
66 70 69 72 71 70 67 66 56 56 50 47 48 48 52 53 52 52 55 54 53 52 53 56 53 55 51 51 52 55 54 55 56 59 61 64 65 68 67 66 67 68 69 71 71 72 73 73 74 74 74 74 74 74 74 74 74 74 74 74 75 74 75 75 75 75 75 75 75 75 74 75 75 75 75 75 75 75 75 75 75 75 74 74 74 75 75 75 75 74 75 75 74 75 75 75 75
66 70 74 72 66 69 64 63 57 55 52 52 49 51 53 51 52 54 55 54 54 55 55 52 53 51 50 50 53 56 57 55 58 60 62 62 63 62 65 67 71 69 70 71 71 72 73 74 74 74 74 74 74 74 75 75 75 74 74 74 74 75 75 75 75 75 75 74 75 74 74 74 75 75 75 75 75 75 75 75 74 75 74 75 75 75 74 75 75 75 74 75 75 75 75 75 75
65 72 75 73 67 63 62 59 55 54 51 52 51 53 52 52 53 54 54 56 55 52 53 51 51 53 54 51 51 52 55 57 58 59 60 61 62 64 66 67 66 68 68 70 70 72 73 75 74 75 75 75 74 75 75 75 74 75 75 75 74 74 75 75 75 75 75 74 74 74 74 74 75 75 75 75 75 74 75 75 75 74 74 75 75 75 75 75 75 75 75 75 75 75 74 73 74
72 75 76 73 66 71 65 59 55 57 53 52 52 52 52 53 54 54 55 57 56 52 50 53 51 52 52 52 52 52 55 54 56 58 60 61 62 64 66 66 65 67 69 70 71 72 73 75 74 75 75 75 75 75 75 75 75 74 75 75 74 74 75 75 75 74 75 75 75 74 74 74 74 74 74 74 74 75 74 75 75 75 74 75 74 74 74 75 75 75 74 75 75 74 74 74 75
65 71 71 71 69 68 58 55 56 56 56 57 52 52 53 54 55 55 56 55 55 50 48 47 50 51 50 52 53 54 56 57 57 58 60 61 61 62 65 64 66 67 71 72 71 72 74 76 75 75 75 75 75 75 74 75 75 75 75 74 74 74 75 75 75 75 74 75 75 74 74 75 74 74 74 74 74 74 74 74 75 75 75 75 75 75 74 75 75 75 75 75 75 74 74 74 74
71 69 69 63 61 62 59 57 57 57 56 58 54 53 55 56 57 56 55 53 50 52 51 49 51 52 52 55 54 55 56 57 58 59 60 61 61 62 63 66 67 68 72 72 73 74 77 76 75 75 75 75 75 75 74 74 75 75 75 74 74 74 75 74 74 74 74 74 74 74 75 75 75 75 75 74 74 74 74 75 74 74 74 75 75 75 75 75 75 76 76 75 74 73 74 74 74
69 72 70 63 59 60 58 58 57 56 60 57 55 59 59 57 58 57 56 57 55 52 50 49 50 52 53 54 55 56 56 57 58 61 59 59 61 61 63 68 68 69 71 71 72 73 74 75 75 75 75 75 75 75 75 75 74 74 74 74 74 74 74 75 74 74 74 74 74 74 75 75 75 75 75 75 75 74 74 75 75 74 74 75 75 75 75 75 75 75 76 75 75 74 74 75 75
68 67 63 62 62 55 56 56 56 58 57 57 57 59 59 59 59 58 56 57 56 52 51 54 52 53 53 53 54 55 57 58 58 58 59 60 60 61 65 66 67 68 69 70 71 72 73 76 75 75 75 75 75 75 75 75 74 74 74 73 74 74 74 74 74 74 74 74 74 74 75 74 74 75 75 75 74 75 75 74 75 74 75 75 75 75 75 75 76 76 76 76 75 75 75 74 74
66 69 67 61 59 57 56 56 56 58 58 58 59 61 60 60 58 58 59 57 55 53 50 50 49 51 53 54 55 56 57 57 57 58 59 59 61 60 65 66 67 69 69 70 71 72 73 73 76 75 75 75 75 74 74 74 74 74 74 74 74 74 74 74 74 74 74 74 74 74 74 74 74 74 74 74 75 74 74 75 75 75 74 76 75 75 75 76 76 76 76 76 75 75 75 74 74
64 65 64 59 58 58 59 57 56 58 60 59 60 61 62 61 60 57 56 57 55 54 51 51 52 54 52 52 54 55 55 56 57 58 58 59 59 59 66 66 67 69 70 70 71 73 73 74 74 75 75 75 75 74 74 74 74 74 74 73 74 74 74 74 74 74 74 74 74 74 74 74 74 74 74 74 75 74 74 74 75 75 75 75 75 75 75 76 76 76 76 76 75 75 74 74 74
65 65 63 60 59 59 60 57 57 57 58 60 59 62 61 61 59 57 58 56 56 56 52 53 53 52 50 52 54 54 54 56 56 57 58 59 58 59 66 67 69 71 72 73 73 72 73 72 73 74 74 75 74 74 73 73 73 74 74 74 74 74 75 74 74 74 74 74 74 74 74 74 74 74 74 75 74 74 74 74 74 75 75 75 76 76 75 75 76 75 75 75 75 74 74 74 74
65 69 65 59 64 60 59 57 58 55 58 59 61 63 62 60 59 59 57 56 58 57 55 52 52 52 51 52 54 54 55 56 56 57 58 58 58 58 66 67 68 71 73 73 73 73 73 73 72 72 72 72 73 73 73 74 73 73 74 74 74 74 75 74 74 74 74 74 75 74 74 75 75 74 74 74 74 74 74 74 74 75 75 75 76 76 76 75 75 75 75 75 75 75 74 74 74
66 70 66 61 60 60 60 57 56 56 56 58 62 63 61 61 60 60 60 58 56 55 52 53 52 50 49 51 52 53 54 55 56 58 58 58 58 60 68 68 70 73 72 72 73 72 72 73 72 74 72 72 72 74 73 73 73 74 74 74 74 75 74 75 74 75 74 74 74 74 74 75 75 75 75 74 74 74 74 74 75 76 75 75 75 75 75 75 75 75 75 75 75 75 74 74 74
67 67 67 61 59 57 59 59 59 57 58 59 63 62 60 60 63 62 60 57 56 53 56 52 53 50 49 50 52 54 55 56 57 57 57 59 61 62 68 69 70 72 74 72 72 72 72 73 73 73 74 73 73 73 73 73 73 73 73 74 74 74 74 74 75 74 75 75 74 75 75 75 75 75 75 75 75 75 75 74 76 76 75 75 75 74 74 75 75 74 75 75 75 75 75 74 75
64 65 61 59 58 57 60 61 59 55 56 59 62 61 61 61 62 62 61 58 55 54 57 51 50 50 50 52 54 55 55 57 59 57 58 60 62 67 68 68 69 70 70 71 71 72 70 72 72 73 74 73 73 73 73 73 74 74 73 74 74 74 74 74 75 75 75 75 74 75 75 75 75 75 75 74 75 75 75 75 76 76 76 76 74 74 74 74 74 75 74 75 75 75 76 76 76
59 55 61 59 59 58 61 59 60 61 59 58 60 61 60 57 58 58 59 56 55 51 49 47 49 50 52 54 55 55 56 57 57 57 57 58 63 65 66 68 68 69 69 70 71 71 71 71 72 72 73 72 72 73 72 73 73 73 73 73 74 74 74 74 74 74 75 75 74 76 76 75 74 75 74 74 75 75 74 76 76 76 75 74 74 74 74 74 74 73 75 75 75 76 76 74 74
54 54 57 55 56 61 62 63 65 62 55 59 62 60 57 57 57 58 56 55 52 48 48 50 50 52 54 54 55 55 56 56 56 55 55 57 62 64 66 70 70 70 70 70 70 71 72 72 72 72 72 73 72 72 72 73 73 72 72 72 73 73 74 74 74 74 74 74 75 74 76 74 73 74 74 73 73 74 74 76 75 74 74 74 74 74 74 75 75 75 75 75 76 76 75 74 73
53 51 55 59 59 63 64 63 63 63 60 60 60 59 58 57 59 61 56 53 50 49 50 51 52 52 53 54 54 55 56 55 55 54 54 59 65 64 65 66 67 69 68 69 70 71 71 71 72 72 73 73 72 72 72 73 73 73 73 73 73 74 73 74 74 74 74 75 75 75 75 74 72 75 72 73 73 72 73 74 74 74 74 75 75 75 75 75 75 75 75 75 76 74 74 72 71
51 54 59 57 62 60 62 63 63 63 60 61 63 62 57 59 61 61 55 51 53 52 50 51 51 52 53 54 54 55 55 54 54 54 56 59 62 64 67 65 67 68 68 72 71 70 70 71 72 73 72 72 73 72 72 74 74 73 73 74 74 74 73 73 73 74 74 74 75 75 73 73 71 73 74 73 71 72 73 73 74 74 74 74 75 75 74 71 74 74 74 75 75 72 70 71 71
56 57 58 59 62 62 63 63 64 60 63 63 63 60 59 60 61 58 56 52 52 52 50 51 53 53 53 53 54 55 54 54 53 54 57 58 61 62 63 67 66 67 69 69 70 71 70 70 73 72 72 73 73 73 72 73 73 73 73 73 73 74 73 74 75 77 74 74 72 71 72 71 70 71 73 72 72 73 73 72 72 73 73 74 75 75 73 74 73 72 73 72 72 71 70 68 72
53 58 58 59 61 63 63 64 65 64 61 63 62 64 61 59 59 59 56 54 54 54 53 51 53 53 53 53 54 54 54 54 53 55 57 58 60 60 62 64 64 66 69 68 70 71 70 70 71 71 72 73 74 74 72 73 74 73 73 73 72 72 72 73 73 73 73 73 72 71 65 66 68 69 70 72 73 74 76 76 76 76 75 73 75 73 73 72 72 72 72 72 71 70 62 73 68
46 56 56 59 60 62 66 63 65 63 62 62 63 64 63 59 59 59 55 55 53 51 51 52 52 52 53 53 54 54 54 54 54 55 57 58 59 60 60 61 64 66 68 68 69 70 70 69 72 71 71 71 72 73 72 73 73 73 73 74 73 73 72 72 71 71 73 74 73 65 67 65 65 65 70 73 73 73 73 75 75 74 73 73 73 72 70 72 71 72 75 71 68 72 59 60 66
53 56 60 61 61 65 65 64 64 65 65 65 64 61 62 62 60 57 54 53 49 51 52 52 52 52 53 54 54 55 55 55 55 56 58 59 59 59 60 62 64 67 68 67 68 70 70 70 70 71 71 71 72 72 70 71 71 74 75 76 73 74 71 71 71 72 71 71 67 69 69 62 65 67 69 70 73 73 74 73 74 75 73 72 75 73 71 74 73 73 77 73 75 70 71 70 67
52 55 61 62 63 65 63 65 66 66 65 65 63 61 61 62 63 57 52 54 52 51 51 52 52 53 53 54 54 55 55 56 56 58 58 59 59 59 60 61 64 65 68 68 68 69 70 69 69 70 70 71 71 70 71 71 71 75 72 71 71 75 71 70 69 66 67 66 64 72 65 62 64 66 71 72 73 75 73 73 74 73 72 76 72 70 72 72 75 77 71 71 67 71 68 70 72
54 55 59 63 63 65 65 64 65 64 64 64 61 61 62 63 64 51 55 55 50 51 51 52 53 53 53 54 55 56 56 57 58 59 59 59 59 59 59 60 62 65 69 68 68 69 69 69 69 70 70 73 71 69 72 72 73 71 72 70 71 72 70 70 69 66 64 66 72 76 75 74 66 69 72 75 74 73 75 75 73 73 73 74 74 71 72 73 75 69 71 72 70 74 72 68 72
55 55 62 62 63 63 64 65 65 65 64 65 63 62 64 63 61 54 54 57 52 50 51 52 53 53 54 55 56 58 57 58 60 59 59 59 59 59 59 62 62 64 70 67 68 70 68 68 69 69 70 71 72 69 72 71 72 72 73 72 71 69 70 66 65 66 71 71 73 76 77 75 74 77 75 75 73 75 74 75 78 76 74 74 76 74 77 76 77 74 73 74 74 76 75 72 72
56 56 58 61 61 61 63 64 64 65 63 64 64 61 59 61 57 58 56 56 54 52 51 51 52 52 54 56 56 59 58 60 59 60 59 60 60 59 59 62 62 64 65 65 68 68 68 68 67 68 71 71 71 70 70 69 69 68 68 67 67 65 68 66 64 66 70 73 76 77 78 77 80 75 78 76 74 75 74 74 73 75 75 73 73 71 73 76 77 72 74 75 79 73 73 73 62
56 58 58 57 58 59 63 65 65 64 65 65 64 54 56 56 60 61 58 57 56 53 51 51 51 52 54 56 56 58 58 59 59 60 60 60 59 59 60 60 62 63 67 66 66 67 65 66 66 67 68 68 69 68 68 66 66 66 66 65 70 67 64 64 66 69 71 73 75 77 77 77 77 79 77 76 78 74 74 74 73 75 75 77 75 75 76 79 77 76 73 72 74 73 66 66 68
52 56 53 52 51 57 61 62 62 61 65 63 63 55 56 61 62 61 61 58 56 52 50 50 50 52 55 56 57 58 58 59 59 59 60 60 59 59 59 60 62 64 65 65 66 66 65 65 65 66 67 67 67 66 65 66 65 64 64 66 66 67 66 64 64 67 69 70 73 76 76 78 77 78 77 79 76 75 71 71 73 72 75 76 76 76 78 75 75 77 75 73 71 71 71 68 68
53 48 45 49 46 54 59 63 62 59 61 65 63 54 54 59 60 63 62 60 58 54 50 49 50 52 55 56 57 57 57 59 59 59 59 59 59 58 60 60 62 63 64 67 67 65 64 64 64 64 65 65 66 67 67 68 64 65 65 67 66 68 64 62 63 64 67 69 73 76 77 78 78 78 77 78 77 76 73 73 74 76 77 79 78 79 78 75 76 78 74 72 76 69 71 66 68
53 42 45 44 49 52 56 61 62 62 62 63 61 56 58 59 61 64 66 65 64 59 53 49 51 52 54 55 57 58 57 58 58 60 58 59 58 59 60 61 62 63 64 65 65 65 63 63 64 63 63 63 65 63 67 69 68 68 67 63 61 67 61 61 64 65 67 69 73 72 76 78 78 77 78 76 79 75 73 73 70 71 77 77 77 77 75 76 73 68 76 75 75 77 72 62 67
37 42 41 47 46 50 51 58 62 62 59 58 61 57 55 58 62 63 65 64 63 60 58 50 50 52 54 55 57 58 60 59 59 59 58 59 58 59 60 64 62 64 65 64 65 63 62 62 62 62 63 63 65 67 69 67 66 70 67 66 71 63 61 64 68 69 70 71 74 75 77 76 77 77 78 78 79 76 75 75 73 75 74 77 76 75 77 73 75 74 76 79 75 77 74 68 63
38 38 39 40 44 44 49 54 58 60 59 59 57 56 57 58 60 63 66 64 63 61 60 62 61 52 53 53 55 60 59 59 63 60 58 59 59 59 61 62 62 64 65 64 65 65 64 63 65 67 64 65 66 70 73 70 68 72 64 67 68 70 73 68 70 69 69 68 74 75 78 76 78 77 78 78 79 76 76 75 74 76 75 78 79 73 74 73 74 71 71 77 78 72 72 70 66
38 40 39 40 39 44 48 52 59 59 56 57 57 56 59 58 60 62 67 66 62 61 62 63 59 58 53 52 55 58 61 58 60 59 60 59 59 59 61 61 62 63 65 65 67 64 66 65 65 68 68 66 67 69 70 67 67 67 66 68 69 70 71 73 74 69 69 70 71 73 77 79 78 79 78 78 79 80 77 76 76 73 73 76 76 73 75 78 73 75 75 70 76 76 75 71 70
33 35 37 38 40 51 52 56 59 61 57 54 55 56 56 59 59 62 65 67 65 62 61 61 61 59 56 50 56 58 61 61 61 60 60 60 59 60 61 62 62 63 65 65 64 63 64 64 66 67 68 69 69 69 69 66 67 69 67 66 68 67 70 70 68 69 70 69 71 74 77 75 78 77 77 78 78 78 78 76 80 78 77 77 79 77 74 72 75 77 80 79 74 74 70 66 70
30 29 32 33 41 47 53 55 59 62 56 52 57 57 57 57 59 61 63 65 65 61 62 61 59 56 60 52 53 58 59 59 60 63 60 59 59 60 60 61 64 63 65 65 65 64 66 64 65 65 67 69 69 68 69 67 71 68 66 66 68 66 70 74 73 70 70 69 75 76 77 76 78 78 78 78 79 79 77 78 78 78 77 77 80 80 77 76 75 78 76 80 79 73 75 65 62
27 27 30 30 42 45 51 55 60 61 59 49 55 56 56 59 61 61 61 63 65 64 62 61 59 61 60 59 53 60 58 61 59 60 61 58 59 59 60 61 62 63 63 64 65 65 66 66 69 70 68 68 68 69 72 72 72 71 68 66 71 75 68 70 67 70 70 69 71 75 77 77 78 77 76 77 77 75 77 79 78 81 77 79 81 78 78 77 79 73 77 74 72 71 73 70 70
23 21 24 22 44 39 48 52 53 59 53 49 52 53 56 59 60 61 61 62 63 66 65 63 63 61 59 59 52 59 58 60 60 62 60 59 59 60 60 61 63 63 64 64 64 65 66 70 70 71 70 69 70 71 73 70 72 73 75 73 71 70 69 70 72 71 71 69 71 74 76 78 76 74 73 73 76 77 77 77 76 77 81 80 79 80 78 75 76 78 72 74 76 70 68 69 67
16 19 22 24 34 33 37 47 49 51 53 55 52 52 52 57 57 61 62 63 65 65 65 65 64 61 60 59 60 55 60 60 61 62 63 61 59 59 60 61 62 63 63 63 64 64 64 66 69 71 71 70 70 72 73 74 74 73 74 74 73 74 73 71 70 70 73 72 70 72 71 75 76 74 74 74 76 78 78 79 79 78 79 79 75 80 77 73 71 75 74 77 75 71 66 70 72
14 15 17 22 29 26 41 46 45 41 50 54 51 42 44 55 57 59 61 61 63 64 64 63 64 62 61 58 58 55 60 60 60 60 61 59 59 59 61 61 61 62 62 62 63 63 65 66 68 72 71 71 69 71 74 75 75 75 74 73 73 72 74 71 69 69 69 70 69 71 71 72 72 74 75 76 75 75 77 78 77 75 77 81 81 76 75 75 72 76 74 74 72 74 74 71 65
13 16 16 18 18 21 29 38 39 35 35 52 53 42 40 54 53 55 59 61 60 63 63 62 63 63 60 58 57 53 54 59 60 60 61 61 59 59 60 60 61 61 61 62 63 63 65 66 69 69 71 72 69 72 74 75 74 75 72 68 68 70 71 70 72 69 70 69 72 71 73 72 74 73 73 75 76 78 78 78 78 77 76 76 79 77 76 71 74 71 74 76 75 78 79 76 73
10 11 15 17 17 26 30 34 34 39 40 56 53 49 47 45 51 56 59 60 60 60 62 62 62 62 61 58 56 55 53 57 58 62 63 62 60 59 59 60 60 60 60 60 61 61 66 70 70 71 72 72 71 72 74 75 74 74 73 71 70 69 65 70 71 72 71 76 74 70 72 73 75 78 76 78 76 76 77 77 78 79 77 75 77 79 75 73 76 75 77 76 79 82 78 77 74
4 6 6 6 17 25 29 29 35 37 38 35 48 52 45 45 52 56 59 57 58 58 59 61 61 62 61 57 54 55 53 57 58 59 61 62 60 60 59 60 59 59 60 59 61 61 65 68 71 71 71 72 72 73 74 74 75 74 74 70 73 71 70 69 71 72 74 74 73 76 73 72 74 76 76 75 76 75 77 78 77 78 78 77 78 75 73 71 73 75 78 80 79 78 79 76 78
6 4 6 6 6 11 28 31 34 36 36 33 36 51 42 40 50 55 59 56 56 57 58 59 60 60 60 58 55 55 53 56 57 59 59 61 61 61 60 58 58 58 59 59 60 61 64 67 70 71 71 71 72 73 74 74 74 75 74 73 71 71 72 73 73 75 75 78 74 75 77 79 69 74 75 76 78 77 75 78 77 75 75 73 74 76 75 74 74 76 76 75 76 77 77 76 78
7 8 6 5 10 13 18 25 30 33 33 33 37 40 43 38 49 52 55 56 55 56 58 59 60 60 60 58 54 56 53 54 56 58 60 61 62 61 61 57 57 58 59 59 60 61 64 66 68 70 72 71 72 73 73 73 73 73 73 74 72 72 71 72 73 74 76 75 75 73 74 76 77 72 71 75 75 75 75 77 74 74 75 78 77 75 75 71 70 71 71 75 76 76 78 78 74
10 11 6 5 12 14 24 29 36 32 29 44 48 50 49 41 49 51 54 55 55 54 56 58 59 60 59 60 56 55 55 52 55 56 58 61 63 62 61 61 57 58 57 59 60 61 64 66 68 71 72 73 72 71 72 71 71 73 73 73 73 74 74 71 74 74 73 74 72 74 77 77 75 74 77 72 71 70 75 75 76 76 78 76 75 75 77 75 73 72 76 78 77 79 79 77 74
13 10 10 9 11 20 22 30 26 27 27 46 49 49 46 44 45 47 51 53 52 54 58 59 59 59 59 59 58 54 55 52 53 57 58 59 61 63 63 62 62 63 61 60 59 62 64 67 68 70 72 73 74 72 72 72 73 72 73 72 73 74 75 75 74 75 74 75 73 73 76 76 77 75 74 72 68 70 75 76 76 77 79 78 78 78 79 78 78 76 76 73 75 76 78 76 77
16 14 15 15 16 19 21 22 26 26 28 49 50 49 42 40 42 45 49 52 51 52 58 57 58 60 60 59 59 55 56 54 53 54 56 59 60 62 62 63 62 60 58 58 59 62 65 66 69 69 72 73 74 73 72 73 72 73 73 73 73 74 74 74 74 72 71 74 74 74 72 71 75 72 70 73 71 70 73 74 76 77 79 79 78 78 78 78 79 78 76 77 73 77 79 77 77
16 18 17 19 22 18 20 22 22 24 36 42 50 42 37 37 48 45 44 46 50 52 56 58 58 61 62 60 59 57 55 55 53 54 54 57 59 62 61 62 62 60 58 58 59 64 66 68 70 72 72 72 73 73 73 73 71 72 73 72 73 72 72 73 73 73 73 72 69 70 75 72 71 71 71 74 75 73 73 76 75 75 76 78 79 78 73 77 79 77 77 77 79 75 76 75 74
19 22 26 23 23 29 20 23 23 24 26 40 40 35 40 43 47 48 50 50 56 56 57 58 58 58 61 62 62 59 56 56 53 54 56 58 60 61 61 62 62 62 64 61 60 65 65 68 71 71 72 71 72 73 73 72 73 71 73 73 72 73 74 72 75 75 75 72 71 71 74 76 74 78 75 74 69 72 74 75 76 74 78 75 77 78 78 76 78 78 78 77 78 73 75 75 76
25 25 23 23 29 27 26 27 22 23 27 26 34 33 39 49 48 48 48 54 56 59 56 55 56 58 60 61 61 59 59 59 56 56 57 60 60 60 61 62 62 62 61 61 65 66 68 70 69 70 72 71 71 73 71 72 72 72 72 71 70 71 69 69 68 69 68 71 73 72 70 70 73 75 71 71 71 75 76 74 74 72 77 77 77 77 75 77 78 78 75 78 76 72 77 77 75
29 26 26 29 30 31 29 23 30 29 28 31 33 32 38 41 40 50 50 51 55 56 54 53 55 57 58 60 62 63 61 59 62 62 59 59 61 62 62 62 64 63 62 63 68 66 70 69 69 69 70 70 69 70 69 70 71 70 71 71 71 70 68 68 68 68 68 70 71 73 71 71 69 69 70 69 70 71 75 75 76 77 75 75 75 74 75 75 77 78 75 79 76 78 77 78 76
30 30 35 28 36 35 42 33 29 29 27 30 31 31 36 41 42 46 48 51 51 54 55 54 53 56 57 60 64 65 64 62 61 61 59 59 60 61 63 63 63 65 66 64 65 65 67 67 67 68 69 68 68 68 68 69 69 68 68 69 68 69 68 68 68 70 70 68 67 68 69 70 68 71 73 77 75 70 73 74 77 74 75 76 76 75 77 79 79 78 76 76 77 78 77 77 77
31 32 30 32 31 33 34 33 36 36 30 29 31 31 31 45 48 46 53 52 52 51 53 55 57 57 57 59 60 64 65 65 66 66 60 58 56 58 60 61 64 65 65 63 64 61 62 64 66 67 69 69 68 66 67 68 68 68 68 69 70 72 71 69 69 70 68 67 67 67 67 66 67 69 69 70 71 71 72 72 71 71 70 71 71 71 71 74 76 76 74 71 73 77 76 77 75
28 29 30 32 30 30 32 39 34 32 36 34 33 36 41 47 51 52 52 53 55 56 56 57 58 57 57 56 58 63 66 66 67 67 63 57 57 56 59 63 64 63 64 63 64 63 63 64 65 67 67 67 66 66 66 68 68 69 69 69 68 69 67 67 67 67 67 69 68 71 68 67 69 69 69 69 71 73 74 72 71 72 69 74 76 74 73 76 78 78 78 77 77 77 77 77 77
29 30 33 32 38 41 31 36 33 32 30 30 32 31 47 53 56 55 52 53 53 55 57 60 58 60 62 62 59 64 66 67 67 65 64 58 59 58 59 62 60 61 63 65 63 64 64 64 64 65 64 66 65 66 69 69 69 69 68 67 69 68 69 69 67 67 68 68 68 70 70 70 66 69 70 70 71 70 70 70 70 71 73 71 75 77 71 72 75 77 74 71 72 74 75 75 77